[[{"header":{"parameterUnit":"m.s-1","parameterCategory":1,"la1":30.2991,"la2":30.254,"lo1":-89.0895,"lo2":-89.0444,"dy":0.0017,"dx":0.0017,"nx":28,"ny":28,"refTime":"2024-09-03T09:00:00:Z","depth":0,"parameterNumber":2,"parameterNumberName":"U-component_of_WINDS"},"data":[0,0,0,0,0,0,0,0,0,0,0,0,0,0,0,0,0,0,0,0,0,0,0,0,0,0,0,0,0,0,0,0,0,0,0,0,0,0,0,0,0,0,0,0,0,0,0,0,0,0,0,0,0,0,0,0,0,0,-7.7061,-7.7061,0,-7.7069,-7.7069,-7.7069,-7.6853,-7.6847,-7.6841,-7.6836,-7.6844,-7.685,-7.6855,0,0,0,0,0,0,0,0,0,0,0,0,0,-7.6857,-7.6862,-7.7061,-7.7061,-7.7061,-7.7069,-7.7069,-7.7069,-7.6854,-7.6847,-7.684,-7.6833,-7.6842,-7.6849,-7.6856,0,0,0,0,0,0,0,0,0,0,0,0,0,-7.6914,-7.6864,-7.7061,-7.6955,-7.6945,-7.7069,-7.7069,-7.707,-7.6855,-7.6846,-7.6838,-7.683,-7.684,-7.6848,-7.6857,-7.7083,0,0,-7.6883,-7.6886,0,0,0,0,0,0,0,0,-7.6911,-7.6922,-7.697,-7.6962,-7.6952,-7.6951,-7.7,-7.7074,-7.6857,-7.6889,-7.6835,-7.6825,-7.6887,-7.6891,-7.6912,-7.7084,-7.7084,-7.6883,-7.6888,-7.6892,-7.6894,0,0,0,0,0,0,0,-7.6907,-7.692,-7.7064,-7.6971,-7.696,-7.6906,-7.6904,-7.7013,-7.6937,-7.6886,-7.687,-7.6874,-7.688,-7.6904,-7.691,-7.7084,-7.6883,-7.6891,-7.6896,-7.6899,-7.744,-7.7449,0,0,0,0,0,0,-7.6918,-7.6918,-7.7064,-7.7064,-7.6909,-7.6917,-7.6915,-7.696,-7.6935,-7.6923,-7.6882,-7.6864,-7.6894,-7.6901,-7.691,-7.7171,-7.6892,-7.69,-7.6905,-7.7431,-7.7442,-7.7453,0,0,0,0,0,0,-7.6914,-7.6933,-7.7063,-7.6987,-7.6999,-7.6929,-7.6982,-7.6965,-7.6988,-7.6932,-7.6917,-7.692,-7.6887,-7.6898,-7.7041,-7.7169,-7.6904,-7.6911,-7.742,-7.7435,-7.7448,-7.7698,0,0,0,0,0,0,-7.691,-7.6933,-7.7019,-7.6991,-7.7005,-7.7196,-7.699,-7.6971,-7.7003,-7.6981,-7.6964,-7.6953,-7.6881,-7.703,-7.705,-7.7175,-7.6918,-7.7408,-7.7427,-7.7443,-7.7678,-7.7719,-7.7754,0,0,0,0,0,-7.6903,-7.7089,-7.7024,-7.7043,-7.711,-7.7204,-7.7212,-7.7125,-7.7015,-7.71,-7.7063,-7.6953,-7.7152,-7.7046,-7.7067,-7.7197,-7.74,-7.7421,-7.7442,-7.7661,-7.7711,-7.7753,0,0,0,0,0,0,-7.7134,-7.7084,-7.7011,-7.7194,-7.7205,-7.7167,-7.7272,-7.7181,-7.7224,-7.7201,-7.7092,-7.709,-7.7251,-7.7238,-7.7121,-7.7414,-7.7256,-7.7282,-7.7416,-7.7463,-7.75,-7.7499,-7.6925,0,0,0,0,0,-7.7207,-7.7288,-7.7239,-7.7405,-7.7414,-7.7343,-7.738,-7.7313,-7.732,-7.7323,-7.7297,-7.7308,-7.7372,-7.7417,-7.7474,-7.7676,-7.7668,-7.7776,-7.7814,-7.7845,-7.7868,-7.7973,-7.8019,-7.7521,-7.7521,-7.7521,0,0,-7.7357,-7.7339,-7.7397,-7.7451,-7.7451,-7.7537,-7.7348,-7.7447,-7.7508,-7.7338,-7.7471,-7.7453,-7.7458,-7.7632,-7.7707,-7.7626,-7.8005,-7.7872,-7.7897,-7.7903,-7.7999,-7.8046,-7.8088,-7.7535,-7.7533,-7.7531,0,0,-7.7674,-7.767,-7.7806,-7.7811,-7.7814,-7.7765,-7.7799,-7.7775,-7.7756,-7.7888,-7.7761,-7.7834,-7.7948,-7.7955,-7.7975,-7.8295,-7.8195,-7.8317,-7.8514,-7.8617,-7.8656,-7.869,-7.8803,-7.8845,-7.834,-7.8341,-7.8341,0,-7.786,-7.7983,-7.7888,-7.7995,-7.8022,-7.7872,-7.8009,-7.8018,-7.804,-7.8062,-7.7971,-7.811,-7.8103,-7.8276,-7.8354,-7.8375,-7.8409,-7.8317,-7.8658,-7.8692,-7.8722,-7.8828,-7.8871,-7.8355,-7.8354,-7.8352,-7.8351,0,-7.8211,-7.8299,-7.8409,-7.8433,-7.8473,-7.8595,-7.8518,-7.8569,-7.8499,-7.846,-7.8596,-7.8582,-7.8632,-7.8668,-7.8601,-7.8832,-7.8781,-7.8677,-7.8515,-7.8786,-7.8883,-7.8923,-7.8376,-7.8371,-7.8367,-7.8363,0,0,-7.8673,-7.8643,-7.8685,-7.8693,-7.8686,-7.8751,-7.8867,-7.8915,-7.8961,-7.8981,-7.9074,-7.9174,-7.9076,-7.9098,-7.9031,-7.9122,-7.9374,-7.9005,-7.9003,-7.9072,-7.9626,-7.9703,-7.9752,-7.9308,-7.9316,-7.9322,-7.9624,0,-7.8979,-7.9172,-7.909,-7.9292,-7.9371,-7.923,-7.9329,-7.9335,-7.9302,-7.9364,-7.9327,-7.9399,-7.9266,-7.9278,-7.9362,-7.9326,-7.9483,-7.9303,-7.9392,-7.9397,-7.9394,-7.9803,-7.9885,-8.0172,-7.9662,-7.9669,-7.9673,0,-7.9361,-7.9397,-7.9607,-7.9584,-7.9614,-7.9705,-7.9742,-7.9804,-7.9808,-7.9777,-7.9802,-7.9713,-7.9823,-7.9665,-7.9815,-7.9694,-7.9726,-7.9714,-7.9723,-7.9726,-7.955,-7.9816,-8.0261,-8.0304,-7.9733,-7.9728,-7.9724,0,-7.9675,-7.9775,-7.9913,-7.9925,-7.9902,-7.997,-7.9963,-7.9958,-7.9993,-8.0026,-8.0047,-8.0093,-8.0119,-8.0156,-8.0082,-7.9974,-8.0242,-8.0078,-8.0219,-8.0221,-8.028,-8.0277,-8.0735,-8.0305,-8.0304,-8.0303,-8.0303,0,-8.0024,-8.0157,-8.0053,-8.0138,-8.0283,-8.0187,-8.0333,-8.0311,-8.0308,-8.0386,-8.0267,-8.0343,-8.0241,-8.0307,-8.025,-8.0382,-8.0395,-8.0372,-8.0355,-8.0382,-8.0385,-8.04,-8.0377,-8.0315,-8.0312,-8.031,-8.0308,0,-8.0398,-8.0334,-8.0474,-8.0441,-8.0436,-8.0544,-8.0515,-8.0592,-8.0551,-8.0651,-8.0668,-8.0604,-8.0675,-8.0605,-8.0672,-8.0634,-8.081,-8.0765,-8.0809,-8.0795,-8.094,-8.0927,-8.1422,-8.1481,-8.1015,-8.102,-8.1024,0,-8.0623,-8.0722,-8.07,-8.0743,-8.0744,-8.0816,-8.085,-8.076,-8.0801,-8.0812,-8.0888,-8.0948,-8.0992,-8.1112,-8.1071,-8.1121,-8.1075,-8.1245,-8.1082,-8.1105,-8.1075,-8.107,-8.1078,-8.1278,-8.1284,-8.1288,-8.1292,0,-8.1031,-8.0994,-8.1048,-8.1092,-8.1136,-8.1166,-8.1186,-8.1228,-8.1135,-8.1187,-8.1257,-8.1292,-8.1359,-8.1421,-8.1459,-8.1451,-8.1357,-8.1344,-8.1379,-8.1406,-8.1427,-8.1416,-8.0897,-8.1333,-8.1329,-8.1326,-8.1323,-8.1322,-8.1336,-8.1416,-8.1413,-8.1477,-8.1483,-8.1505,-8.1575,-8.1542,-8.16,-8.1647,-8.1591,-8.1678,-8.1678,-8.1719,-8.1724,-8.179,-8.1718,-8.1769,-8.1781,-8.1795,-8.1816,-8.1418,-8.1797,-8.1795,-8.1794,-8.1793,-8.1792,0,-8.1735,-8.1726,-8.1785,-8.1818,-8.1868,-8.1775,-8.1792,-8.1841,-8.1918,-8.1927,-8.1972,-8.2053,-8.2112,-8.2076,-8.2126,-8.2187,-8.2144,-8.2203,-8.2196,-8.2196,-8.1878,-8.1842,-8.2236,-8.2236,-8.2236,-8.2236,-8.2236,-8.2235,-8.1948,-8.2079,-8.2043,-8.2176,-8.2165,-8.2249,-8.2267,-8.2286,-8.2292,-8.2388,-8.2436,-8.2412,-8.2403,-8.2451,-8.2501,-8.2489,-8.2512,-8.2587,-8.2559,-8.2262,-8.2218,-8.2177,-8.2142,-8.2593,-8.2593,-8.287,-8.2873,-8.2875]},{"header":{"parameterUnit":"m.s-1","parameterCategory":1,"la1":30.2991,"la2":30.254,"lo1":-89.0895,"lo2":-89.0444,"dy":0.0017,"dx":0.0017,"nx":28,"ny":28,"refTime":"2024-09-03T09:00:00:Z","depth":0,"parameterNumber":3,"parameterNumberName":"V-component_of_WINDS"},"data":[0,0,0,0,0,0,0,0,0,0,0,0,0,0,0,0,0,0,0,0,0,0,0,0,0,0,0,0,0,0,0,0,0,0,0,0,0,0,0,0,0,0,0,0,0,0,0,0,0,0,0,0,0,0,0,0,0,0,-1.2453,-1.2452,0,-1.2377,-1.2376,-1.2375,-1.2299,-1.2298,-1.2297,-1.2296,-1.2221,-1.222,-1.2219,0,0,0,0,0,0,0,0,0,0,0,0,0,-1.2533,-1.2532,-1.2453,-1.2452,-1.2451,-1.2377,-1.2376,-1.2375,-1.2299,-1.2298,-1.2296,-1.2295,-1.2221,-1.222,-1.2219,0,0,0,0,0,0,0,0,0,0,0,0,0,-1.2482,-1.2532,-1.2453,-1.2404,-1.2399,-1.2377,-1.2376,-1.2375,-1.2299,-1.2298,-1.2296,-1.2295,-1.2221,-1.222,-1.2218,-1.224,0,0,-1.2214,-1.2213,0,0,0,0,0,0,0,0,-1.2485,-1.2479,-1.2412,-1.2408,-1.2402,-1.2346,-1.2377,-1.233,-1.23,-1.2337,-1.2296,-1.2294,-1.2264,-1.2259,-1.2248,-1.2236,-1.2233,-1.2214,-1.2213,-1.2212,-1.2212,0,0,0,0,0,0,0,-1.2489,-1.2482,-1.2423,-1.2412,-1.2405,-1.2386,-1.2377,-1.2368,-1.231,-1.2334,-1.2328,-1.232,-1.2261,-1.225,-1.2246,-1.2232,-1.2214,-1.2212,-1.2211,-1.2211,-1.2232,-1.2233,0,0,0,0,0,0,-1.25,-1.2486,-1.2426,-1.2421,-1.244,-1.2386,-1.2376,-1.2365,-1.231,-1.23,-1.2321,-1.2317,-1.2253,-1.2247,-1.2243,-1.2262,-1.2212,-1.2211,-1.221,-1.223,-1.2232,-1.2234,0,0,0,0,0,0,-1.2502,-1.2495,-1.2429,-1.2452,-1.2442,-1.2386,-1.2375,-1.2365,-1.2354,-1.2301,-1.229,-1.2321,-1.2252,-1.2245,-1.224,-1.2259,-1.221,-1.2208,-1.2229,-1.2231,-1.2233,-1.2304,0,0,0,0,0,0,-1.2504,-1.2496,-1.2504,-1.2452,-1.2441,-1.2428,-1.2376,-1.2364,-1.2351,-1.2344,-1.2297,-1.2288,-1.225,-1.2243,-1.2239,-1.2256,-1.2207,-1.2227,-1.223,-1.2232,-1.23,-1.2308,-1.2316,0,0,0,0,0,-1.2507,-1.2528,-1.2504,-1.2498,-1.2449,-1.2429,-1.2422,-1.2377,-1.2353,-1.236,-1.2325,-1.2289,-1.2258,-1.2243,-1.2238,-1.2255,-1.2225,-1.2229,-1.2232,-1.2296,-1.2307,-1.2315,0,0,0,0,0,0,-1.2584,-1.252,-1.2494,-1.2498,-1.2469,-1.2416,-1.2424,-1.239,-1.2369,-1.2363,-1.2309,-1.2299,-1.2301,-1.2277,-1.2263,-1.2271,-1.2236,-1.2239,-1.2287,-1.2296,-1.2304,-1.231,-1.2206,0,0,0,0,0,-1.2602,-1.259,-1.2535,-1.2544,-1.2531,-1.248,-1.247,-1.2437,-1.2405,-1.2393,-1.2359,-1.233,-1.2313,-1.2303,-1.2285,-1.2296,-1.2284,-1.2304,-1.2312,-1.2319,-1.2322,-1.2324,-1.2332,-1.2245,-1.2245,-1.2245,0,0,-1.2638,-1.2601,-1.2598,-1.2559,-1.2532,-1.2522,-1.247,-1.2462,-1.2453,-1.2392,-1.2385,-1.2359,-1.2323,-1.2326,-1.2325,-1.2306,-1.2343,-1.2324,-1.2329,-1.2328,-1.2328,-1.2337,-1.2344,-1.2247,-1.2247,-1.2246,0,0,-1.2698,-1.2669,-1.2673,-1.2647,-1.2607,-1.2573,-1.2574,-1.2525,-1.2505,-1.2496,-1.245,-1.2439,-1.2412,-1.2388,-1.2372,-1.242,-1.2386,-1.2416,-1.2458,-1.246,-1.2467,-1.2473,-1.2489,-1.2496,-1.2419,-1.2419,-1.2419,0,-1.2748,-1.2729,-1.2679,-1.2672,-1.2656,-1.2599,-1.2601,-1.2579,-1.2537,-1.2527,-1.2506,-1.2469,-1.2441,-1.2436,-1.2447,-1.2437,-1.2436,-1.2421,-1.247,-1.2475,-1.248,-1.2495,-1.2501,-1.2423,-1.2422,-1.2422,-1.2422,0,-1.2792,-1.278,-1.2787,-1.2745,-1.273,-1.2729,-1.2678,-1.2668,-1.2637,-1.2605,-1.2596,-1.256,-1.2533,-1.2529,-1.2499,-1.252,-1.2509,-1.248,-1.2444,-1.2493,-1.2506,-1.2511,-1.2428,-1.2427,-1.2426,-1.2425,0,0,-1.29,-1.2828,-1.2832,-1.2811,-1.2762,-1.2752,-1.2747,-1.2719,-1.2711,-1.2683,-1.2678,-1.2655,-1.2626,-1.2609,-1.2575,-1.2577,-1.2616,-1.2547,-1.2546,-1.2561,-1.2635,-1.2657,-1.2665,-1.2593,-1.2594,-1.2595,-1.2638,0,-1.2951,-1.2938,-1.2892,-1.2893,-1.288,-1.2824,-1.282,-1.2789,-1.2759,-1.2743,-1.271,-1.2694,-1.2659,-1.2647,-1.2647,-1.2612,-1.263,-1.2608,-1.2587,-1.2587,-1.2597,-1.2671,-1.2695,-1.2738,-1.2643,-1.2644,-1.2644,0,-1.3009,-1.2983,-1.2982,-1.2931,-1.2924,-1.2921,-1.289,-1.2877,-1.2841,-1.2818,-1.2797,-1.2759,-1.275,-1.2716,-1.2703,-1.2689,-1.2677,-1.2659,-1.2659,-1.2655,-1.2619,-1.2669,-1.275,-1.2757,-1.2652,-1.2651,-1.2651,0,-1.3086,-1.3051,-1.3045,-1.3029,-1.2971,-1.2969,-1.2945,-1.2907,-1.2892,-1.2866,-1.2855,-1.2829,-1.2814,-1.2795,-1.275,-1.2729,-1.2742,-1.2704,-1.2722,-1.2724,-1.2728,-1.2728,-1.2808,-1.2721,-1.2721,-1.2721,-1.2721,0,-1.3148,-1.315,-1.3079,-1.3076,-1.3075,-1.3022,-1.3023,-1.2993,-1.296,-1.2949,-1.29,-1.2892,-1.2833,-1.2818,-1.2783,-1.2777,-1.2771,-1.2752,-1.2743,-1.2756,-1.2759,-1.2748,-1.2744,-1.2723,-1.2723,-1.2722,-1.2722,0,-1.3235,-1.3187,-1.3177,-1.3122,-1.3107,-1.311,-1.3062,-1.3056,-1.3022,-1.3009,-1.3003,-1.295,-1.2929,-1.2882,-1.2849,-1.2826,-1.2828,-1.2812,-1.284,-1.2834,-1.2855,-1.2853,-1.293,-1.2937,-1.2847,-1.2848,-1.2849,0,-1.3277,-1.3277,-1.322,-1.3209,-1.3186,-1.3169,-1.3153,-1.31,-1.3085,-1.3043,-1.3042,-1.3017,-1.2994,-1.2964,-1.2922,-1.2896,-1.2878,-1.2907,-1.2874,-1.2887,-1.2878,-1.2878,-1.2877,-1.2915,-1.2916,-1.2917,-1.2918,0,-1.3357,-1.3333,-1.3311,-1.3281,-1.3263,-1.3237,-1.3208,-1.3202,-1.3142,-1.3128,-1.3106,-1.3088,-1.3053,-1.3029,-1.2996,-1.2971,-1.2934,-1.2928,-1.2931,-1.2944,-1.296,-1.2951,-1.2859,-1.2927,-1.2926,-1.2925,-1.2925,-1.2924,-1.3422,-1.3418,-1.3377,-1.3354,-1.3326,-1.33,-1.3292,-1.3255,-1.3235,-1.3201,-1.3171,-1.3151,-1.3113,-1.3065,-1.3043,-1.3026,-1.3008,-1.3012,-1.3013,-1.3015,-1.302,-1.2963,-1.302,-1.302,-1.302,-1.3019,-1.3019,0,-1.3498,-1.3468,-1.3448,-1.3408,-1.339,-1.3355,-1.3321,-1.3308,-1.3291,-1.3258,-1.3236,-1.3209,-1.3184,-1.314,-1.3112,-1.3107,-1.3089,-1.3101,-1.3101,-1.3096,-1.3039,-1.3039,-1.3116,-1.3116,-1.3116,-1.3116,-1.3116,-1.3116,-1.3536,-1.3527,-1.3498,-1.3474,-1.3444,-1.3423,-1.3407,-1.3382,-1.3355,-1.3327,-1.3306,-1.3276,-1.3238,-1.3206,-1.3182,-1.317,-1.3161,-1.3179,-1.3161,-1.3109,-1.31,-1.3091,-1.3091,-1.3177,-1.3178,-1.3219,-1.3219,-1.3219]}]]